Select another period ( hide this area )

Units Period Custom range Directly to
Metric English Both
Daily Weekly Monthly Yearly
use both date-selectors for a custom range
previous Day
With this date

WeatherUnderground graphs for this period ( click here ) Loading the graph can take up to a minute!


Daily Summary for Monday Aug 20 2018
Time Temp. ( °C ) Dew pt. ( °C ) Wind ( km/h ) From Gust ( km/h ) Pressure ( hPa ) Humid.( % ) Rainrate ( cm )
High24,3 18,3 14,3 WNW ( 195/487 ) 14,5 1020,5 90 -
Average21,1 17,3 1,7 Kalm #143/288 4,2 1019,5 79 -
Low18,8 16,1 -   0,0 1018,2 65 -
Daily Tabular details for Monday Aug 20 2018
Time Temp. ( °C ) Dew pt. ( °C ) Wind ( km/h ) From Gust ( km/h ) Pressure ( hPa ) Humid.( % ) Rainrate ( cm )
00:04 20,5 16,3 4,7 ESE 9,7 1018,8 77 -
00:09 20,4 16,2 14,3 WSW 14,5 1018,8 77 -
00:14 20,3 16,1 4,7 West 11,3 1018,8 77 -
00:19 20,2 16,2 4,7 WNW 9,7 1018,8 78 -
00:24 20,1 16,1 9,7 WNW 11,3 1018,8 78 -
00:29 19,9 16,1 4,7 WNW 4,8 1018,8 79 -
00:34 19,9 16,3 6,4 WNW 6,4 1018,8 80 -
00:39 19,8 16,2 3,2 WNW 4,8 1018,8 80 -
00:44 19,7 16,2   Kalm 6,4 1018,8 80 -
00:49 19,6 16,2 1,4 WNW 3,2 1018,8 81 -
00:53 19,6 16,2 4,7 WNW 4,8 1018,8 81 -
00:59 19,4 16,2   Kalm 1,6 1018,8 82 -
01:04 19,4 16,2 1,4 WNW 4,8 1018,8 82 -
01:09 19,4 16,2 1,4 West 4,8 1018,8 82 -
01:14 19,3 16,3 3,2 WNW 6,4 1018,8 83 -
01:19 19,2 16,2   Kalm 8,0 1018,8 83 -
01:24 19,2 16,2   Kalm 4,8 1018,8 83 -
01:29 19,1 16,3 3,2 West 6,4 1018,8 84 -
01:34 19,1 16,3   Kalm 4,8 1019,2 84 -
01:39 19,0 16,2   Kalm 6,4 1018,8 84 -
01:44 18,9 16,1 1,4 West 1,6 1019,2 84 -
01:48 18,9 16,3   Kalm 3,2 1019,2 85 -
01:54 18,9 16,3   Kalm   1019,2 85 -
01:59 18,8 16,2   Kalm   1019,2 85 -
02:04 18,8 16,2   Kalm 1,6 1019,2 85 -
02:09 18,8 16,2   Kalm 1,6 1019,2 85 -
02:14 18,8 16,2   Kalm 1,6 1018,8 85 -
02:19 18,8 16,4   Kalm 1,6 1018,8 86 -
02:24 18,8 16,4   Kalm   1018,8 86 -
02:29 18,9 16,5   Kalm   1018,8 86 -
02:34 18,9 16,5   Kalm   1018,8 86 -
02:39 18,9 16,5   Kalm 1,6 1018,8 86 -
02:44 18,9 16,5   Kalm   1018,8 86 -
02:49 18,9 16,5   Kalm   1018,8 86 -
02:53 18,9 16,5   Kalm 1,6 1018,8 86 -
02:59 18,9 16,5   Kalm   1018,8 86 -
03:04 18,9 16,7   Kalm 1,6 1018,8 87 -
03:09 18,9 16,7   Kalm   1018,8 87 -
03:14 18,9 16,7   Kalm   1018,8 87 -
03:19 19,0 16,8   Kalm   1018,8 87 -
03:24 19,0 16,6   Kalm   1018,8 86 -
03:29 19,0 16,8   Kalm 1,6 1018,5 87 -
03:34 19,0 16,8   Kalm 1,6 1018,5 87 -
03:39 19,0 16,8   Kalm 1,6 1018,5 87 -
03:44 19,1 16,9   Kalm   1018,5 87 -
03:49 19,1 16,9   Kalm   1018,5 87 -
03:54 19,1 16,9 1,4 WNW 1,6 1018,5 87 -
03:58 19,0 16,8   Kalm 1,6 1018,5 87 -
04:04 19,1 16,9   Kalm 1,6 1018,5 87 -
04:09 19,1 16,9   Kalm   1018,5 87 -
04:14 19,1 16,9 3,2 West 3,2 1018,5 87 -
04:19 19,1 16,9   Kalm 3,2 1018,5 87 -
04:23 19,1 16,9   Kalm 1,6 1018,5 87 -
04:29 19,1 16,9   Kalm   1018,5 87 -
04:34 19,2 17,0   Kalm   1018,5 87 -
04:39 19,2 17,0 1,4 West 1,6 1018,5 87 -
04:44 19,3 17,3   Kalm 3,2 1018,5 88 -
04:49 19,3 17,1   Kalm   1018,5 87 -
04:54 19,4 17,2 1,4 WNW 6,4 1018,5 87 -
04:58 19,5 17,3 3,2 WNW 4,8 1018,5 87 -
05:04 19,5 17,3 3,2 NW 8,0 1018,5 87 -
05:09 19,6 17,4 3,2 WNW 6,4 1018,5 87 -
05:14 19,6 17,4 4,7 WNW 12,9 1018,5 87 -
05:18 19,6 17,4 1,4 West 4,8 1018,5 87 -
05:24 19,6 17,4   Kalm 9,7 1018,2 87 -
05:29 19,7 17,5   Kalm 3,2 1018,2 87 -
05:33 19,7 17,5   Kalm 1,6 1018,2 87 -
05:39 19,7 17,5 1,4 West 1,6 1018,2 87 -
05:44 19,7 17,5   Kalm 3,2 1018,2 87 -
05:49 19,7 17,5 1,4 WNW 4,8 1018,2 87 -
05:54 19,7 17,5   Kalm 1,6 1018,2 87 -
05:59 19,7 17,5 1,4 WSW 1,6 1018,2 87 -
06:04 19,7 17,7   Kalm 1,6 1018,5 88 -
06:09 19,7 17,7   Kalm 3,2 1018,5 88 -
06:14 19,7 17,7   Kalm 1,6 1018,5 88 -
06:18 19,7 17,7   Kalm   1018,5 88 -
06:24 19,7 17,7   Kalm 1,6 1018,5 88 -
06:29 19,7 17,7   Kalm 3,2 1018,5 88 -
06:34 19,7 17,7   Kalm 1,6 1018,5 88 -
06:39 19,7 17,7 1,4 WNW 9,7 1018,5 88 -
06:44 19,6 17,6 1,4 West 1,6 1018,5 88 -
06:49 19,6 17,6   Kalm 1,6 1018,5 88 -
06:54 19,6 17,6   Kalm 4,8 1018,5 88 -
06:59 19,6 17,7   Kalm 8,0 1018,5 89 -
07:04 19,6 17,7 3,2 West 6,4 1018,5 89 -
07:09 19,6 17,7 1,4 West 9,7 1018,5 89 -
07:13 19,6 17,7 3,2 West 6,4 1018,5 89 -
07:19 19,6 17,7 1,4 West 3,2 1018,5 89 -
07:24 19,6 17,7   Kalm 1,6 1018,5 89 -
07:29 19,6 17,7   Kalm 1,6 1018,8 89 -
07:34 19,6 17,7   Kalm 1,6 1018,8 89 -
07:38 19,6 17,7 1,4 West 4,8 1018,8 89 -
07:44 19,7 17,8 1,4 West 1,6 1018,8 89 -
07:49 19,6 17,7 1,4 WNW 4,8 1018,8 89 -
07:54 19,7 17,8 4,7 WNW 6,4 1018,8 89 -
07:59 19,6 17,7 7,9 WNW 8,0 1019,2 89 -
08:04 19,6 17,7 4,7 West 9,7 1019,2 89 -
08:09 19,6 17,7 3,2 WNW 4,8 1018,8 89 -
08:13 19,6 17,7 6,4 WNW 9,7 1018,8 89 -
08:19 19,6 17,7   Kalm 3,2 1018,8 89 -
08:23 19,6 17,7 3,2 West 6,4 1019,2 89 -
08:29 19,6 17,7 3,2 NW 9,7 1019,2 89 -
08:34 19,5 17,6 3,2 WNW 6,4 1019,2 89 -
08:39 19,5 17,6 3,2 ESE 8,0 1019,5 89 -
08:44 19,4 17,7 1,4 West 4,8 1019,2 90 -
08:49 19,4 17,7 3,2 ESE 8,0 1019,2 90 -
08:54 19,4 17,7 4,7 WNW 4,8 1019,5 90 -
08:59 19,4 17,7   Kalm 6,4 1019,5 90 -
09:03 19,5 17,8 3,2 West 8,0 1019,5 90 -
09:09 19,5 17,6 3,2 West 6,4 1019,5 89 -
09:14 19,6 17,7   Kalm 4,8 1019,5 89 -
09:19 19,7 17,8   Kalm 9,7 1019,5 89 -
09:24 19,8 17,9   Kalm 1,6 1019,5 89 -
09:29 19,9 17,9   Kalm 9,7 1019,5 88 -
09:33 19,9 17,7 1,4 West 8,0 1019,5 87 -
09:39 20,0 18,0 3,2 WNW 4,8 1019,5 88 -
09:43 20,1 17,9 3,2 WNW 6,4 1019,5 87 -
09:49 20,3 17,9   Kalm 4,8 1019,9 86 -
09:54 20,4 18,0   Kalm 3,2 1019,9 86 -
09:59 20,4 17,8   Kalm 6,4 1019,5 85 -
10:04 20,4 17,8 1,4 West 4,8 1019,9 85 -
10:08 20,5 17,7 3,2 WNW 8,0 1019,9 84 -
10:14 20,5 17,7 4,7 WNW 6,4 1019,9 84 -
10:19 20,6 17,8 7,9 WNW 12,9 1019,9 84 -
10:23 20,6 17,8 1,4 West 8,0 1019,9 84 -
10:29 20,6 18,0 4,7 WNW 4,8 1019,9 85 -
10:33 20,7 18,1 4,7 WNW 6,4 1020,2 85 -
10:39 20,7 17,9 7,9 WNW 8,0 1020,2 84 -
10:44 20,7 17,9 3,2 WNW 8,0 1020,2 84 -
10:49 20,7 17,9   Kalm 3,2 1020,2 84 -
10:54 20,9 18,1   Kalm 8,0 1019,9 84 -
10:59 21,0 18,0 1,4 WNW 1,6 1020,2 83 -
11:04 21,0 18,0 4,7 West 4,8 1020,2 83 -
11:09 21,1 18,1   Kalm 6,4 1020,2 83 -
11:14 21,1 17,9 3,2 West 4,8 1020,2 82 -
11:18 21,1 17,9 1,4 West 4,8 1020,2 82 -
11:24 21,1 17,9 1,4 West 4,8 1020,2 82 -
11:29 21,2 18,0   Kalm 4,8 1020,2 82 -
11:34 21,3 18,1   Kalm 1,6 1020,2 82 -
11:39 21,6 18,0 4,7 WNW 4,8 1020,2 80 -
11:44 21,6 18,0 1,4 WNW 6,4 1020,2 80 -
11:49 21,6 18,0   Kalm 8,0 1020,2 80 -
11:54 21,6 18,0   Kalm 4,8 1020,2 80 -
11:59 21,6 18,0 3,2 West 6,4 1020,2 80 -
12:04 21,6 17,8 4,7 WNW 8,0 1020,2 79 -
12:09 21,7 17,9   Kalm 4,8 1020,2 79 -
12:14 21,7 17,9   Kalm 4,8 1020,2 79 -
12:19 21,6 18,0 9,7 East 9,7 1020,2 80 -
12:24 21,7 17,9   Kalm 4,8 1020,2 79 -
12:29 21,7 18,1 1,4 NE 3,2 1020,2 80 -
12:34 21,7 17,9 1,4 WNW 4,8 1020,2 79 -
12:38 21,9 18,3   Kalm 1,6 1020,2 80 -
12:44 21,9 17,9 1,4 West 4,8 1020,2 78 -
12:49 22,1 18,1 4,7 WNW 4,8 1020,2 78 -
12:54 22,2 18,2   Kalm 3,2 1020,2 78 -
12:59 22,2 18,2   Kalm 1,6 1020,2 78 -
13:04 22,5 18,1 1,4 West 3,2 1020,2 76 -
13:09 22,7 18,0 3,2 NE 4,8 1020,2 75 -
13:14 22,8 17,9 1,4 NW 3,2 1020,2 74 -
13:19 22,9 18,2 1,4 West 1,6 1020,2 75 -
13:24 23,0 17,9 3,2 WNW 6,4 1020,2 73 -
13:29 23,1 18,0   Kalm   1020,2 73 -
13:34 23,6 18,0   Kalm 6,4 1020,2 71 -
13:39 23,4 17,8   Kalm 4,8 1020,2 71 -
13:44 23,6 18,0   Kalm   1020,2 71 -
13:49 23,7 17,9   Kalm 1,6 1019,9 70 -
13:54 23,8 18,0 3,2 West 3,2 1020,2 70 -
13:59 23,8 18,0   Kalm 3,2 1019,9 70 -
14:04 24,0 18,2 1,4 WNW 6,4 1019,9 70 -
14:09 23,9 17,6 1,4 SSE 8,0 1020,2 68 -
14:14 23,8 17,5   Kalm 1,6 1020,2 68 -
14:19 23,6 17,1 3,2 NE 6,4 1020,2 67 -
14:24 23,6 17,3   Kalm 3,2 1020,2 68 -
14:29 23,6 17,1 4,7 NE 6,4 1020,2 67 -
14:34 23,8 17,5   Kalm   1020,2 68 -
14:39 24,3 17,5   Kalm 3,2 1020,2 66 -
14:44 24,2 17,4 1,4 WNW 3,2 1020,2 66 -
14:49 24,1 17,1 4,7 West 8,0 1019,9 65 -
14:54 23,9 16,9 6,4 WNW 6,4 1019,9 65 -
14:58 23,9 17,2   Kalm 6,4 1019,9 66 -
15:04 23,9 17,2 3,2 WNW 3,2 1019,9 66 -
15:09 24,1 17,3 3,2 WNW 4,8 1019,9 66 -
15:14 24,0 17,3 3,2 WNW 8,0 1019,9 66 -
15:19 23,8 17,5 3,2 NNE 8,0 1019,9 68 -
15:23 23,7 17,4 1,4 WNW 8,0 1019,9 68 -
15:29 23,6 17,6 6,4 West 6,4 1019,9 69 -
15:34 23,5 17,3 3,2 West 6,4 1020,2 68 -
15:39 23,5 17,5 1,4 WNW 8,0 1019,9 69 -
15:44 23,4 17,4 4,7 WNW 4,8 1019,9 69 -
15:49 23,4 17,4 3,2 West 8,0 1019,9 69 -
15:54 23,5 17,5 6,4 West 6,4 1019,9 69 -
15:59 23,4 17,2 4,7 ESE 6,4 1019,9 68 -
16:04 23,6 17,3 3,2 ENE 6,4 1019,9 68 -
16:09 23,7 17,4   Kalm 1,6 1019,9 68 -
16:13 23,8 17,3   Kalm 4,8 1019,9 67 -
16:19 23,8 17,3 3,2 West 3,2 1019,9 67 -
16:24 23,9 17,4 1,4 ENE 1,6 1019,9 67 -
16:29 23,9 17,4   Kalm 3,2 1019,9 67 -
16:34 23,7 17,2 6,4 WNW 6,4 1019,9 67 -
16:39 23,6 17,3 4,7 WNW 6,4 1019,5 68 -
16:44 23,4 17,4 4,7 NE 8,0 1019,5 69 -
16:49 23,5 17,5 1,4 ESE 3,2 1019,5 69 -
16:54 23,5 17,3 1,4 WNW 6,4 1019,5 68 -
16:59 23,4 17,4   Kalm   1019,5 69 -
17:04 23,3 17,3 1,4 WNW 6,4 1019,5 69 -
17:08 23,3 17,3 1,4 ESE 3,2 1019,9 69 -
17:14 23,3 17,5 1,4 West 3,2 1019,9 70 -
17:19 23,2 17,0 1,4 ENE 4,8 1019,9 68 -
17:24 23,1 16,9 3,2 East 3,2 1019,9 68 -
17:28 23,1 16,9 1,4 ENE 3,2 1019,5 68 -
17:34 23,1 17,1 3,2 NE 3,2 1019,9 69 -
17:39 23,1 17,3   Kalm 4,8 1019,5 70 -
17:44 23,1 17,1   Kalm 1,6 1019,5 69 -
17:49 23,3 17,3 7,9 East 8,0 1019,5 69 -
17:54 23,3 17,3   Kalm 4,8 1019,5 69 -
17:58 23,6 17,3   Kalm 4,8 1019,5 68 -
18:04 23,6 17,1 4,7 NNE 4,8 1019,5 67 -
18:09 23,4 16,9 4,7 East 11,3 1019,5 67 -
18:14 23,4 17,2 4,7 ENE 6,4 1019,5 68 -
18:19 23,3 17,5 1,4 ESE 4,8 1019,5 70 -
18:24 23,2 17,9 6,4 NE 6,4 1019,5 72 -
18:29 23,1 17,8 13,0 ENE 14,5 1019,5 72 -
18:34 23,0 17,7   Kalm 9,7 1019,5 72 -
18:38 23,0 17,7 1,4 ESE 6,4 1019,5 72 -
18:44 22,9 17,6 7,9 East 9,7 1019,5 72 -
18:49 22,9 17,8   Kalm 3,2 1019,5 73 -
18:54 22,8 17,7 1,4 NNW 3,2 1019,5 73 -
18:59 22,9 17,8   Kalm 1,6 1019,5 73 -
19:04 22,8 17,7 3,2 ESE 4,8 1019,5 73 -
19:08 22,9 17,8   Kalm 1,6 1019,5 73 -
19:14 22,7 17,4 3,2 East 4,8 1019,5 72 -
19:19 22,7 17,6 3,2 North 3,2 1019,5 73 -
19:24 22,6 17,3 3,2 ESE 11,3 1019,5 72 -
19:29 22,6 17,3   Kalm 4,8 1019,5 72 -
19:34 22,6 17,3 3,2 ENE 11,3 1019,5 72 -
19:39 22,3 17,2   Kalm 3,2 1019,5 73 -
19:44 22,4 17,3 6,4 NE 8,0 1019,5 73 -
19:49 22,3 17,2 3,2 ENE 4,8 1019,5 73 -
19:54 22,3 17,2   Kalm 8,0 1019,5 73 -
19:59 22,3 17,2   Kalm 3,2 1019,5 73 -
20:03 22,3 17,2   Kalm 6,4 1019,5 73 -
20:09 22,3 17,4   Kalm   1019,5 74 -
20:14 22,2 17,3 1,4 East 1,6 1019,5 74 -
20:19 22,2 17,3 6,4 ESE 6,4 1019,5 74 -
20:24 22,1 17,0   Kalm   1019,5 73 -
20:29 22,1 17,0   Kalm 3,2 1019,9 73 -
20:34 22,0 16,7 1,4 East 3,2 1019,9 72 -
20:39 21,9 16,6 4,7 ENE 4,8 1019,9 72 -
20:44 21,9 16,8   Kalm 3,2 1019,9 73 -
20:48 21,9 16,8 1,4 East 4,8 1019,9 73 -
20:54 21,8 16,7   Kalm 1,6 1019,9 73 -
20:59 21,8 16,7 1,4 NNW 4,8 1019,9 73 -
21:04 21,7 16,6   Kalm 3,2 1019,9 73 -
21:09 21,7 16,9 1,4 East 3,2 1019,9 74 -
21:14 21,7 16,9 3,2 NE 3,2 1019,9 74 -
21:19 21,7 16,9   Kalm 1,6 1020,2 74 -
21:24 21,6 16,8   Kalm 1,6 1020,2 74 -
21:29 21,6 17,0   Kalm   1020,2 75 -
21:34 21,6 17,0   Kalm 3,2 1020,2 75 -
21:39 21,6 17,0 1,4 East 1,6 1020,2 75 -
21:44 21,4 16,8   Kalm 1,6 1020,2 75 -
21:49 21,4 17,0   Kalm   1020,2 76 -
21:54 21,4 17,0 1,4 WNW 3,2 1020,2 76 -
21:59 21,3 16,9 1,4 WNW 1,6 1020,2 76 -
22:04 21,3 16,9   Kalm 1,6 1020,2 76 -
22:09 21,3 17,1   Kalm 1,6 1020,2 77 -
22:14 21,2 17,0   Kalm 1,6 1020,2 77 -
22:19 21,2 17,0   Kalm   1020,2 77 -
22:24 21,1 16,9   Kalm 1,6 1020,2 77 -
22:29 21,1 17,1   Kalm   1020,2 78 -
22:34 21,1 17,1   Kalm 1,6 1020,2 78 -
22:39 21,1 17,1   Kalm 1,6 1020,2 78 -
22:43 21,1 17,1   Kalm 1,6 1020,2 78 -
22:49 21,0 17,0 1,4 East 1,6 1020,2 78 -
22:54 21,0 17,0   Kalm 1,6 1020,2 78 -
22:59 20,9 17,1   Kalm 1,6 1020,5 79 -
23:04 20,9 17,1   Kalm   1020,5 79 -
23:09 20,9 17,1   Kalm 1,6 1020,5 79 -
23:14 20,9 17,1   Kalm   1020,5 79 -
23:19 20,9 17,1   Kalm 1,6 1020,5 79 -
23:24 20,9 17,1   Kalm   1020,5 79 -
23:28 20,8 17,0   Kalm   1020,5 79 -
23:34 20,8 17,0   Kalm   1020,5 79 -
23:39 20,8 17,0   Kalm   1020,5 79 -
23:44 20,8 17,2   Kalm   1020,5 80 -
23:49 20,7 16,9   Kalm   1020,5 79 -
23:54 20,7 17,1   Kalm   1020,5 80 -
23:59 20,7 17,1   Kalm   1020,5 80 -
Daily Summary for Monday Aug 20 2018
Time Temp. ( °C ) Dew pt. ( °C ) Wind ( km/h ) From Gust ( km/h ) Pressure ( hPa ) Humid.( % ) Rainrate ( cm )
High24,3 18,3 14,3 WNW ( 195/487 ) 14,5 1020,5 90 -
Average21,1 17,3 1,7 Kalm #143/288 4,2 1019,5 79 -
Low18,8 16,1 -   0,0 1018,2 65 -
Daily Tabular details for Monday Aug 20 2018
Time Temp. ( °C ) Dew pt. ( °C ) Wind ( km/h ) From Gust ( km/h ) Pressure ( hPa ) Humid.( % ) Rainrate ( cm )
00:04 20,5 16,3 4,7 ESE 9,7 1018,8 77 -
00:09 20,4 16,2 14,3 WSW 14,5 1018,8 77 -
00:14 20,3 16,1 4,7 West 11,3 1018,8 77 -
00:19 20,2 16,2 4,7 WNW 9,7 1018,8 78 -
00:24 20,1 16,1 9,7 WNW 11,3 1018,8 78 -
00:29 19,9 16,1 4,7 WNW 4,8 1018,8 79 -
00:34 19,9 16,3 6,4 WNW 6,4 1018,8 80 -
00:39 19,8 16,2 3,2 WNW 4,8 1018,8 80 -
00:44 19,7 16,2   Kalm 6,4 1018,8 80 -
00:49 19,6 16,2 1,4 WNW 3,2 1018,8 81 -
00:53 19,6 16,2 4,7 WNW 4,8 1018,8 81 -
00:59 19,4 16,2   Kalm 1,6 1018,8 82 -
01:04 19,4 16,2 1,4 WNW 4,8 1018,8 82 -
01:09 19,4 16,2 1,4 West 4,8 1018,8 82 -
01:14 19,3 16,3 3,2 WNW 6,4 1018,8 83 -
01:19 19,2 16,2   Kalm 8,0 1018,8 83 -
01:24 19,2 16,2   Kalm 4,8 1018,8 83 -
01:29 19,1 16,3 3,2 West 6,4 1018,8 84 -
01:34 19,1 16,3   Kalm 4,8 1019,2 84 -
01:39 19,0 16,2   Kalm 6,4 1018,8 84 -
01:44 18,9 16,1 1,4 West 1,6 1019,2 84 -
01:48 18,9 16,3   Kalm 3,2 1019,2 85 -
01:54 18,9 16,3   Kalm   1019,2 85 -
01:59 18,8 16,2   Kalm   1019,2 85 -
02:04 18,8 16,2   Kalm 1,6 1019,2 85 -
02:09 18,8 16,2   Kalm 1,6 1019,2 85 -
02:14 18,8 16,2   Kalm 1,6 1018,8 85 -
02:19 18,8 16,4   Kalm 1,6 1018,8 86 -
02:24 18,8 16,4   Kalm   1018,8 86 -
02:29 18,9 16,5   Kalm   1018,8 86 -
02:34 18,9 16,5   Kalm   1018,8 86 -
02:39 18,9 16,5   Kalm 1,6 1018,8 86 -
02:44 18,9 16,5   Kalm   1018,8 86 -
02:49 18,9 16,5   Kalm   1018,8 86 -
02:53 18,9 16,5   Kalm 1,6 1018,8 86 -
02:59 18,9 16,5   Kalm   1018,8 86 -
03:04 18,9 16,7   Kalm 1,6 1018,8 87 -
03:09 18,9 16,7   Kalm   1018,8 87 -
03:14 18,9 16,7   Kalm   1018,8 87 -
03:19 19,0 16,8   Kalm   1018,8 87 -
03:24 19,0 16,6   Kalm   1018,8 86 -
03:29 19,0 16,8   Kalm 1,6 1018,5 87 -
03:34 19,0 16,8   Kalm 1,6 1018,5 87 -
03:39 19,0 16,8   Kalm 1,6 1018,5 87 -
03:44 19,1 16,9   Kalm   1018,5 87 -
03:49 19,1 16,9   Kalm   1018,5 87 -
03:54 19,1 16,9 1,4 WNW 1,6 1018,5 87 -
03:58 19,0 16,8   Kalm 1,6 1018,5 87 -
04:04 19,1 16,9   Kalm 1,6 1018,5 87 -
04:09 19,1 16,9   Kalm   1018,5 87 -
04:14 19,1 16,9 3,2 West 3,2 1018,5 87 -
04:19 19,1 16,9   Kalm 3,2 1018,5 87 -
04:23 19,1 16,9   Kalm 1,6 1018,5 87 -
04:29 19,1 16,9   Kalm   1018,5 87 -
04:34 19,2 17,0   Kalm   1018,5 87 -
04:39 19,2 17,0 1,4 West 1,6 1018,5 87 -
04:44 19,3 17,3   Kalm 3,2 1018,5 88 -
04:49 19,3 17,1   Kalm   1018,5 87 -
04:54 19,4 17,2 1,4 WNW 6,4 1018,5 87 -
04:58 19,5 17,3 3,2 WNW 4,8 1018,5 87 -
05:04 19,5 17,3 3,2 NW 8,0 1018,5 87 -
05:09 19,6 17,4 3,2 WNW 6,4 1018,5 87 -
05:14 19,6 17,4 4,7 WNW 12,9 1018,5 87 -
05:18 19,6 17,4 1,4 West 4,8 1018,5 87 -
05:24 19,6 17,4   Kalm 9,7 1018,2 87 -
05:29 19,7 17,5   Kalm 3,2 1018,2 87 -
05:33 19,7 17,5   Kalm 1,6 1018,2 87 -
05:39 19,7 17,5 1,4 West 1,6 1018,2 87 -
05:44 19,7 17,5   Kalm 3,2 1018,2 87 -
05:49 19,7 17,5 1,4 WNW 4,8 1018,2 87 -
05:54 19,7 17,5   Kalm 1,6 1018,2 87 -
05:59 19,7 17,5 1,4 WSW 1,6 1018,2 87 -
06:04 19,7 17,7   Kalm 1,6 1018,5 88 -
06:09 19,7 17,7   Kalm 3,2 1018,5 88 -
06:14 19,7 17,7   Kalm 1,6 1018,5 88 -
06:18 19,7 17,7   Kalm   1018,5 88 -
06:24 19,7 17,7   Kalm 1,6 1018,5 88 -
06:29 19,7 17,7   Kalm 3,2 1018,5 88 -
06:34 19,7 17,7   Kalm 1,6 1018,5 88 -
06:39 19,7 17,7 1,4 WNW 9,7 1018,5 88 -
06:44 19,6 17,6 1,4 West 1,6 1018,5 88 -
06:49 19,6 17,6   Kalm 1,6 1018,5 88 -
06:54 19,6 17,6   Kalm 4,8 1018,5 88 -
06:59 19,6 17,7   Kalm 8,0 1018,5 89 -
07:04 19,6 17,7 3,2 West 6,4 1018,5 89 -
07:09 19,6 17,7 1,4 West 9,7 1018,5 89 -
07:13 19,6 17,7 3,2 West 6,4 1018,5 89 -
07:19 19,6 17,7 1,4 West 3,2 1018,5 89 -
07:24 19,6 17,7   Kalm 1,6 1018,5 89 -
07:29 19,6 17,7   Kalm 1,6 1018,8 89 -
07:34 19,6 17,7   Kalm 1,6 1018,8 89 -
07:38 19,6 17,7 1,4 West 4,8 1018,8 89 -
07:44 19,7 17,8 1,4 West 1,6 1018,8 89 -
07:49 19,6 17,7 1,4 WNW 4,8 1018,8 89 -
07:54 19,7 17,8 4,7 WNW 6,4 1018,8 89 -
07:59 19,6 17,7 7,9 WNW 8,0 1019,2 89 -
08:04 19,6 17,7 4,7 West 9,7 1019,2 89 -
08:09 19,6 17,7 3,2 WNW 4,8 1018,8 89 -
08:13 19,6 17,7 6,4 WNW 9,7 1018,8 89 -
08:19 19,6 17,7   Kalm 3,2 1018,8 89 -
08:23 19,6 17,7 3,2 West 6,4 1019,2 89 -
08:29 19,6 17,7 3,2 NW 9,7 1019,2 89 -
08:34 19,5 17,6 3,2 WNW 6,4 1019,2 89 -
08:39 19,5 17,6 3,2 ESE 8,0 1019,5 89 -
08:44 19,4 17,7 1,4 West 4,8 1019,2 90 -
08:49 19,4 17,7 3,2 ESE 8,0 1019,2 90 -
08:54 19,4 17,7 4,7 WNW 4,8 1019,5 90 -
08:59 19,4 17,7   Kalm 6,4 1019,5 90 -
09:03 19,5 17,8 3,2 West 8,0 1019,5 90 -
09:09 19,5 17,6 3,2 West 6,4 1019,5 89 -
09:14 19,6 17,7   Kalm 4,8 1019,5 89 -
09:19 19,7 17,8   Kalm 9,7 1019,5 89 -
09:24 19,8 17,9   Kalm 1,6 1019,5 89 -
09:29 19,9 17,9   Kalm 9,7 1019,5 88 -
09:33 19,9 17,7 1,4 West 8,0 1019,5 87 -
09:39 20,0 18,0 3,2 WNW 4,8 1019,5 88 -
09:43 20,1 17,9 3,2 WNW 6,4 1019,5 87 -
09:49 20,3 17,9   Kalm 4,8 1019,9 86 -
09:54 20,4 18,0   Kalm 3,2 1019,9 86 -
09:59 20,4 17,8   Kalm 6,4 1019,5 85 -
10:04 20,4 17,8 1,4 West 4,8 1019,9 85 -
10:08 20,5 17,7 3,2 WNW 8,0 1019,9 84 -
10:14 20,5 17,7 4,7 WNW 6,4 1019,9 84 -
10:19 20,6 17,8 7,9 WNW 12,9 1019,9 84 -
10:23 20,6 17,8 1,4 West 8,0 1019,9 84 -
10:29 20,6 18,0 4,7 WNW 4,8 1019,9 85 -
10:33 20,7 18,1 4,7 WNW 6,4 1020,2 85 -
10:39 20,7 17,9 7,9 WNW 8,0 1020,2 84 -
10:44 20,7 17,9 3,2 WNW 8,0 1020,2 84 -
10:49 20,7 17,9   Kalm 3,2 1020,2 84 -
10:54 20,9 18,1   Kalm 8,0 1019,9 84 -
10:59 21,0 18,0 1,4 WNW 1,6 1020,2 83 -
11:04 21,0 18,0 4,7 West 4,8 1020,2 83 -
11:09 21,1 18,1   Kalm 6,4 1020,2 83 -
11:14 21,1 17,9 3,2 West 4,8 1020,2 82 -
11:18 21,1 17,9 1,4 West 4,8 1020,2 82 -
11:24 21,1 17,9 1,4 West 4,8 1020,2 82 -
11:29 21,2 18,0   Kalm 4,8 1020,2 82 -
11:34 21,3 18,1   Kalm 1,6 1020,2 82 -
11:39 21,6 18,0 4,7 WNW 4,8 1020,2 80 -
11:44 21,6 18,0 1,4 WNW 6,4 1020,2 80 -
11:49 21,6 18,0   Kalm 8,0 1020,2 80 -
11:54 21,6 18,0   Kalm 4,8 1020,2 80 -
11:59 21,6 18,0 3,2 West 6,4 1020,2 80 -
12:04 21,6 17,8 4,7 WNW 8,0 1020,2 79 -
12:09 21,7 17,9   Kalm 4,8 1020,2 79 -
12:14 21,7 17,9   Kalm 4,8 1020,2 79 -
12:19 21,6 18,0 9,7 East 9,7 1020,2 80 -
12:24 21,7 17,9   Kalm 4,8 1020,2 79 -
12:29 21,7 18,1 1,4 NE 3,2 1020,2 80 -
12:34 21,7 17,9 1,4 WNW 4,8 1020,2 79 -
12:38 21,9 18,3   Kalm 1,6 1020,2 80 -
12:44 21,9 17,9 1,4 West 4,8 1020,2 78 -
12:49 22,1 18,1 4,7 WNW 4,8 1020,2 78 -
12:54 22,2 18,2   Kalm 3,2 1020,2 78 -
12:59 22,2 18,2   Kalm 1,6 1020,2 78 -
13:04 22,5 18,1 1,4 West 3,2 1020,2 76 -
13:09 22,7 18,0 3,2 NE 4,8 1020,2 75 -
13:14 22,8 17,9 1,4 NW 3,2 1020,2 74 -
13:19 22,9 18,2 1,4 West 1,6 1020,2 75 -
13:24 23,0 17,9 3,2 WNW 6,4 1020,2 73 -
13:29 23,1 18,0   Kalm   1020,2 73 -
13:34 23,6 18,0   Kalm 6,4 1020,2 71 -
13:39 23,4 17,8   Kalm 4,8 1020,2 71 -
13:44 23,6 18,0   Kalm   1020,2 71 -
13:49 23,7 17,9   Kalm 1,6 1019,9 70 -
13:54 23,8 18,0 3,2 West 3,2 1020,2 70 -
13:59 23,8 18,0   Kalm 3,2 1019,9 70 -
14:04 24,0 18,2 1,4 WNW 6,4 1019,9 70 -
14:09 23,9 17,6 1,4 SSE 8,0 1020,2 68 -
14:14 23,8 17,5   Kalm 1,6 1020,2 68 -
14:19 23,6 17,1 3,2 NE 6,4 1020,2 67 -
14:24 23,6 17,3   Kalm 3,2 1020,2 68 -
14:29 23,6 17,1 4,7 NE 6,4 1020,2 67 -
14:34 23,8 17,5   Kalm   1020,2 68 -
14:39 24,3 17,5   Kalm 3,2 1020,2 66 -
14:44 24,2 17,4 1,4 WNW 3,2 1020,2 66 -
14:49 24,1 17,1 4,7 West 8,0 1019,9 65 -
14:54 23,9 16,9 6,4 WNW 6,4 1019,9 65 -
14:58 23,9 17,2   Kalm 6,4 1019,9 66 -
15:04 23,9 17,2 3,2 WNW 3,2 1019,9 66 -
15:09 24,1 17,3 3,2 WNW 4,8 1019,9 66 -
15:14 24,0 17,3 3,2 WNW 8,0 1019,9 66 -
15:19 23,8 17,5 3,2 NNE 8,0 1019,9 68 -
15:23 23,7 17,4 1,4 WNW 8,0 1019,9 68 -
15:29 23,6 17,6 6,4 West 6,4 1019,9 69 -
15:34 23,5 17,3 3,2 West 6,4 1020,2 68 -
15:39 23,5 17,5 1,4 WNW 8,0 1019,9 69 -
15:44 23,4 17,4 4,7 WNW 4,8 1019,9 69 -
15:49 23,4 17,4 3,2 West 8,0 1019,9 69 -
15:54 23,5 17,5 6,4 West 6,4 1019,9 69 -
15:59 23,4 17,2 4,7 ESE 6,4 1019,9 68 -
16:04 23,6 17,3 3,2 ENE 6,4 1019,9 68 -
16:09 23,7 17,4   Kalm 1,6 1019,9 68 -
16:13 23,8 17,3   Kalm 4,8 1019,9 67 -
16:19 23,8 17,3 3,2 West 3,2 1019,9 67 -
16:24 23,9 17,4 1,4 ENE 1,6 1019,9 67 -
16:29 23,9 17,4   Kalm 3,2 1019,9 67 -
16:34 23,7 17,2 6,4 WNW 6,4 1019,9 67 -
16:39 23,6 17,3 4,7 WNW 6,4 1019,5 68 -
16:44 23,4 17,4 4,7 NE 8,0 1019,5 69 -
16:49 23,5 17,5 1,4 ESE 3,2 1019,5 69 -
16:54 23,5 17,3 1,4 WNW 6,4 1019,5 68 -
16:59 23,4 17,4   Kalm   1019,5 69 -
17:04 23,3 17,3 1,4 WNW 6,4 1019,5 69 -
17:08 23,3 17,3 1,4 ESE 3,2 1019,9 69 -
17:14 23,3 17,5 1,4 West 3,2 1019,9 70 -
17:19 23,2 17,0 1,4 ENE 4,8 1019,9 68 -
17:24 23,1 16,9 3,2 East 3,2 1019,9 68 -
17:28 23,1 16,9 1,4 ENE 3,2 1019,5 68 -
17:34 23,1 17,1 3,2 NE 3,2 1019,9 69 -
17:39 23,1 17,3   Kalm 4,8 1019,5 70 -
17:44 23,1 17,1   Kalm 1,6 1019,5 69 -
17:49 23,3 17,3 7,9 East 8,0 1019,5 69 -
17:54 23,3 17,3   Kalm 4,8 1019,5 69 -
17:58 23,6 17,3   Kalm 4,8 1019,5 68 -
18:04 23,6 17,1 4,7 NNE 4,8 1019,5 67 -
18:09 23,4 16,9 4,7 East 11,3 1019,5 67 -
18:14 23,4 17,2 4,7 ENE 6,4 1019,5 68 -
18:19 23,3 17,5 1,4 ESE 4,8 1019,5 70 -
18:24 23,2 17,9 6,4 NE 6,4 1019,5 72 -
18:29 23,1 17,8 13,0 ENE 14,5 1019,5 72 -
18:34 23,0 17,7   Kalm 9,7 1019,5 72 -
18:38 23,0 17,7 1,4 ESE 6,4 1019,5 72 -
18:44 22,9 17,6 7,9 East 9,7 1019,5 72 -
18:49 22,9 17,8   Kalm 3,2 1019,5 73 -
18:54 22,8 17,7 1,4 NNW 3,2 1019,5 73 -
18:59 22,9 17,8   Kalm 1,6 1019,5 73 -
19:04 22,8 17,7 3,2 ESE 4,8 1019,5 73 -
19:08 22,9 17,8   Kalm 1,6 1019,5 73 -
19:14 22,7 17,4 3,2 East 4,8 1019,5 72 -
19:19 22,7 17,6 3,2 North 3,2 1019,5 73 -
19:24 22,6 17,3 3,2 ESE 11,3 1019,5 72 -
19:29 22,6 17,3   Kalm 4,8 1019,5 72 -
19:34 22,6 17,3 3,2 ENE 11,3 1019,5 72 -
19:39 22,3 17,2   Kalm 3,2 1019,5 73 -
19:44 22,4 17,3 6,4 NE 8,0 1019,5 73 -
19:49 22,3 17,2 3,2 ENE 4,8 1019,5 73 -
19:54 22,3 17,2   Kalm 8,0 1019,5 73 -
19:59 22,3 17,2   Kalm 3,2 1019,5 73 -
20:03 22,3 17,2   Kalm 6,4 1019,5 73 -
20:09 22,3 17,4   Kalm   1019,5 74 -
20:14 22,2 17,3 1,4 East 1,6 1019,5 74 -
20:19 22,2 17,3 6,4 ESE 6,4 1019,5 74 -
20:24 22,1 17,0   Kalm   1019,5 73 -
20:29 22,1 17,0   Kalm 3,2 1019,9 73 -
20:34 22,0 16,7 1,4 East 3,2 1019,9 72 -
20:39 21,9 16,6 4,7 ENE 4,8 1019,9 72 -
20:44 21,9 16,8   Kalm 3,2 1019,9 73 -
20:48 21,9 16,8 1,4 East 4,8 1019,9 73 -
20:54 21,8 16,7   Kalm 1,6 1019,9 73 -
20:59 21,8 16,7 1,4 NNW 4,8 1019,9 73 -
21:04 21,7 16,6   Kalm 3,2 1019,9 73 -
21:09 21,7 16,9 1,4 East 3,2 1019,9 74 -
21:14 21,7 16,9 3,2 NE 3,2 1019,9 74 -
21:19 21,7 16,9   Kalm 1,6 1020,2 74 -
21:24 21,6 16,8   Kalm 1,6 1020,2 74 -
21:29 21,6 17,0   Kalm   1020,2 75 -
21:34 21,6 17,0   Kalm 3,2 1020,2 75 -
21:39 21,6 17,0 1,4 East 1,6 1020,2 75 -
21:44 21,4 16,8   Kalm 1,6 1020,2 75 -
21:49 21,4 17,0   Kalm   1020,2 76 -
21:54 21,4 17,0 1,4 WNW 3,2 1020,2 76 -
21:59 21,3 16,9 1,4 WNW 1,6 1020,2 76 -
22:04 21,3 16,9   Kalm 1,6 1020,2 76 -
22:09 21,3 17,1   Kalm 1,6 1020,2 77 -
22:14 21,2 17,0   Kalm 1,6 1020,2 77 -
22:19 21,2 17,0   Kalm   1020,2 77 -
22:24 21,1 16,9   Kalm 1,6 1020,2 77 -
22:29 21,1 17,1   Kalm   1020,2 78 -
22:34 21,1 17,1   Kalm 1,6 1020,2 78 -
22:39 21,1 17,1   Kalm 1,6 1020,2 78 -
22:43 21,1 17,1   Kalm 1,6 1020,2 78 -
22:49 21,0 17,0 1,4 East 1,6 1020,2 78 -
22:54 21,0 17,0   Kalm 1,6 1020,2 78 -
22:59 20,9 17,1   Kalm 1,6 1020,5 79 -
23:04 20,9 17,1   Kalm   1020,5 79 -
23:09 20,9 17,1   Kalm 1,6 1020,5 79 -
23:14 20,9 17,1   Kalm   1020,5 79 -
23:19 20,9 17,1   Kalm 1,6 1020,5 79 -
23:24 20,9 17,1   Kalm   1020,5 79 -
23:28 20,8 17,0   Kalm   1020,5 79 -
23:34 20,8 17,0   Kalm   1020,5 79 -
23:39 20,8 17,0   Kalm   1020,5 79 -
23:44 20,8 17,2   Kalm   1020,5 80 -
23:49 20,7 16,9   Kalm   1020,5 79 -
23:54 20,7 17,1   Kalm   1020,5 80 -
23:59 20,7 17,1   Kalm   1020,5 80 -

Download your copy of this data-set  from WeatherUnderground

Our weather-data as stored at Weather Underground. Original script b Jim McMurry. Rewritten for template use Leuven-Template